Wormley Airport

Jump to: basic info | weather | runways | comments

Related pages: nearby airports | nearby navaids | notams | map

Basic information (top)

Codes: 85LL
Location: lon 41.683899, lat -88.262299, elev 680 ft / 207 m msl
Status: small_airport

Weather (top)

Current conditions for Lewis University Airport 9nm (16km) ESE (rec'd 2014/04/24 11:35Z):

KLOT 241135Z AUTO 11010KT 10SM SCT050 OVC110 07/02 A3001

Airport forecast for Dupage Airport 13nm (25km) N (rec'd 2014/04/24 12:36Z):

TAF KDPA 241134Z 2412/2512 10010KT P6SM SCT050 BKN120 
     FM241400 12016G24KT P6SM SCT120 BKN200 
     FM241700 14020G28KT P6SM SCT050 BKN150 
     FM242300 15015G23KT P6SM BKN060 
     FM250500 16009KT 6SM -SHRA SCT007 BKN014 OVC040 
     FM251000 33012G18KT P6SM FEW250

Runways (top)

N/S: 2,300 x 100 ft (701 x 30 m) — grass — not lighted

Latest comments (top)

No comments yet for Wormley Airport

More... (top)

See also NOTAMs and nearby airports and navaids, or visit the Wormley Airport page at the main OurAirports website..